Total_Precipitation_Accumulation
0.21 0.45 0.83 1.02 1.32 1.75 1.66 1.35 0.89 0.63 0.60 0.67 0.62 0.60 0.76 0.92 1.30 2.36 2.49 2.27 1.51 1.36 1.62 1.66 1.68 1.50 1.38 1.40 1.48 1.41 1.33 1.31 1.41 1.46 1.56 1.67 1.80 1.77 1.77 1.93 2.22 2.47 2.61 2.70 2.77 2.72 2.70 2.61 2.48
0.39 0.71 0.85 0.93 1.50 1.90 1.66 1.29 0.79 0.63 0.51 0.56 0.61 0.55 0.74 0.86 0.90 1.47 1.95 1.77 1.13 1.00 1.21 1.23 1.36 1.35 1.26 1.16 1.23 1.32 1.25 1.28 1.37 1.57 1.79 1.92 2.06 2.02 2.03 2.18 2.36 2.56 2.56 2.57 2.56 2.54 2.46 2.41 2.33
0.40 0.61 0.76 0.91 1.22 1.36 1.17 0.88 0.51 0.43 0.36 0.41 0.53 0.48 0.72 1.14 1.04 1.32 1.55 1.33 0.99 0.92 1.00 1.15 1.12 1.05 1.13 1.12 1.15 1.28 1.35 1.36 1.35 1.56 1.80 2.01 2.27 2.31 2.42 2.53 2.65 2.69 2.52 2.38 2.37 2.38 2.19 2.17 2.14
0.49 0.62 0.58 0.61 0.71 0.72 0.58 0.52 0.37 0.35 0.34 0.34 0.45 0.62 0.99 1.06 0.99 1.16 1.17 1.06 0.81 0.78 0.82 0.90 1.06 1.02 1.07 1.10 1.08 1.12 1.29 1.42 1.54 1.69 1.90 2.05 2.32 2.54 2.75 2.72 2.73 2.65 2.44 2.36 2.29 2.19 2.07 2.12 2.18
0.55 0.54 0.51 0.41 0.42 0.52 0.48 0.41 0.32 0.35 0.32 0.37 0.48 0.87 1.42 1.33 0.96 0.94 0.97 0.89 0.74 0.67 0.77 0.82 0.96 1.01 1.02 0.99 1.07 1.13 1.20 1.44 1.64 1.68 1.77 1.95 2.18 2.54 2.66 2.59 2.53 2.38 2.28 2.21 2.17 2.13 2.04 2.06 2.14
0.37 0.41 0.42 0.29 0.31 0.40 0.39 0.32 0.30 0.27 0.30 0.42 0.61 0.93 1.47 1.47 1.21 1.13 1.14 0.99 0.92 0.73 0.67 0.82 0.95 0.98 0.94 0.91 1.00 1.07 1.20 1.42 1.65 1.69 1.73 1.85 2.01 2.24 2.28 2.24 2.21 2.10 2.11 2.08 2.07 2.09 1.98 1.90 2.08
0.32 0.28 0.24 0.20 0.23 0.31 0.33 0.29 0.29 0.27 0.35 0.53 0.71 1.07 1.43 1.65 1.45 1.26 1.36 1.42 1.21 0.94 0.84 0.88 0.89 0.85 0.88 0.98 1.01 1.12 1.34 1.55 1.67 1.69 1.73 1.90 2.02 2.05 1.94 2.00 2.00 1.99 2.02 2.00 1.92 1.87 1.79 1.74 1.91
0.16 0.16 0.15 0.13 0.16 0.25 0.24 0.22 0.22 0.26 0.40 0.48 0.66 1.11 1.49 1.45 1.41 1.40 1.55 1.68 1.60 1.24 1.11 0.99 0.95 0.95 0.89 0.96 1.15 1.27 1.46 1.69 1.82 1.84 1.93 2.10 2.17 2.09 2.08 1.97 2.03 2.08 2.16 2.11 2.04 1.92 1.83 1.84 1.87
0.10 0.12 0.11 0.09 0.10 0.17 0.15 0.18 0.22 0.19 0.24 0.42 0.63 0.94 1.06 1.02 1.16 1.36 1.57 1.76 1.95 1.70 1.37 1.20 1.10 1.12 1.15 1.07 1.17 1.42 1.61 1.77 1.90 2.18 2.42 2.55 2.51 2.32 2.46 2.26 2.42 2.45 2.46 2.45 2.48 2.41 2.23 2.10 1.93
0.05 0.06 0.06 0.04 0.05 0.06 0.10 0.15 0.20 0.18 0.38 0.65 0.79 0.91 0.85 1.01 1.13 1.37 1.55 1.67 1.82 1.93 1.50 1.38 1.23 1.18 1.21 1.35 1.65 1.86 1.73 1.94 2.25 2.59 2.76 2.97 2.89 2.84 2.48 2.72 3.00 3.18 3.35 3.31 3.23 3.09 2.68 2.20 1.99
0.02 0.03 0.03 0.03 0.02 0.04 0.09 0.10 0.16 0.20 0.54 0.99 1.15 1.18 1.11 1.08 1.22 1.49 1.77 1.84 1.71 1.78 1.57 1.50 1.53 1.56 1.44 1.60 1.84 2.07 2.12 2.33 2.49 2.61 2.79 2.98 2.68 2.64 2.74 3.04 3.39 3.57 3.69 3.54 3.55 3.49 2.99 2.66 2.56
0.02 0.02 0.03 0.02 0.02 0.04 0.08 0.09 0.14 0.23 0.53 0.81 1.08 1.07 1.23 1.21 1.32 1.59 1.94 2.15 2.14 2.28 2.04 1.89 1.94 1.93 1.89 1.86 2.02 2.17 2.21 2.30 2.45 2.63 2.62 2.74 2.87 2.95 3.12 3.48 3.46 3.58 3.68 4.01 3.69 3.80 3.50 3.11 2.87
0.02 0.02 0.03 0.03 0.03 0.04 0.08 0.17 0.17 0.28 0.39 0.58 0.83 0.85 0.94 1.26 1.65 2.05 2.45 2.48 2.63 2.86 2.84 2.58 2.35 2.22 2.25 2.41 2.39 2.28 2.38 2.48 2.58 2.77 2.75 2.74 3.02 3.21 3.32 3.41 3.58 3.32 3.36 3.76 3.93 3.71 3.83 3.75 3.44
0.03 0.03 0.03 0.04 0.04 0.06 0.10 0.23 0.29 0.39 0.47 0.52 0.78 1.02 1.08 1.44 1.79 2.38 3.07 3.00 2.79 3.02 3.13 2.91 2.76 2.66 2.70 2.95 3.02 2.85 2.63 2.84 2.89 2.88 2.81 2.88 3.14 3.53 3.73 3.64 3.73 3.51 3.30 3.49 3.69 3.66 4.28 4.10 3.89
0.04 0.06 0.06 0.08 0.09 0.12 0.18 0.40 0.53 0.53 0.51 0.59 0.89 1.21 1.46 1.61 1.95 2.32 2.73 3.09 3.23 3.33 3.26 3.22 3.19 3.14 3.28 3.41 3.34 3.07 2.98 2.86 2.92 3.01 3.08 3.10 3.13 3.52 3.75 3.94 3.89 3.65 3.42 3.60 3.70 3.91 4.17 3.89 3.71
0.05 0.09 0.13 0.13 0.14 0.15 0.24 0.65 0.65 0.54 0.54 0.85 1.04 1.39 1.72 1.79 2.05 2.47 2.84 3.39 3.65 3.68 3.68 3.68 3.49 3.59 3.79 3.86 3.72 3.52 3.38 3.18 2.98 2.93 3.11 3.19 3.28 3.52 3.75 3.71 3.62 3.71 3.64 3.83 4.08 4.20 4.21 4.07 3.91
0.12 0.15 0.18 0.17 0.19 0.16 0.22 0.48 0.62 0.58 0.76 1.04 1.27 1.59 1.90 2.16 2.61 3.11 3.38 3.50 3.85 4.19 4.36 4.39 4.31 4.21 4.18 4.15 4.05 4.08 4.04 3.81 3.46 3.28 3.30 3.35 3.23 3.30 3.57 3.58 3.67 3.76 3.78 3.81 3.50 4.06 4.06 4.10 3.95
0.14 0.13 0.17 0.20 0.18 0.19 0.27 0.43 0.55 0.63 0.85 1.27 1.64 1.88 2.15 2.56 3.06 3.43 3.70 4.05 4.19 4.47 4.99 4.96 4.81 4.82 4.87 4.83 4.52 4.51 4.27 3.98 3.83 3.73 3.84 3.62 3.42 3.33 3.57 3.56 3.67 3.70 3.81 3.85 3.79 4.07 4.01 3.83 3.77
0.12 0.14 0.18 0.21 0.18 0.22 0.38 0.57 0.62 0.80 1.09 1.40 1.75 1.98 2.32 2.66 3.03 3.47 3.56 3.82 4.14 4.75 5.23 5.48 5.52 5.39 5.15 4.86 4.52 4.32 4.25 4.18 4.00 3.79 3.62 3.50 3.40 3.46 3.79 3.67 3.99 3.89 3.69 3.64 3.73 3.99 3.87 3.59 3.61
0.11 0.14 0.18 0.21 0.19 0.21 0.40 0.60 0.70 1.04 1.36 1.42 1.59 1.72 1.91 2.35 2.70 3.04 3.24 3.33 3.76 4.35 4.81 5.00 4.76 4.68 4.54 4.35 4.30 4.29 4.49 4.19 3.95 3.79 3.62 3.35 3.31 3.40 3.41 3.73 3.65 3.68 3.79 3.68 3.67 3.91 3.72 3.29 3.43
0.10 0.11 0.15 0.22 0.22 0.28 0.43 0.79 0.99 1.20 1.34 1.37 1.46 1.60 1.71 1.99 2.31 2.64 2.79 2.95 3.19 3.32 3.60 3.81 3.96 3.89 3.82 3.82 3.82 3.89 4.15 3.98 3.83 3.70 3.59 3.20 3.02 3.00 3.15 3.27 3.36 3.68 3.58 3.62 3.69 3.63 3.56 3.28 3.22
0.10 0.10 0.10 0.15 0.23 0.37 0.51 1.10 1.34 1.29 1.34 1.46 1.44 1.41 1.65 1.95 1.94 2.06 2.31 2.48 2.77 2.96 3.16 3.24 3.29 3.39 3.42 3.50 3.43 3.29 3.25 3.26 3.25 3.32 3.25 3.19 2.99 2.88 2.94 3.04 3.14 3.23 3.08 3.23 2.96 3.09 3.39 3.52 3.22
0.08 0.08 0.09 0.19 0.29 0.40 0.51 0.85 1.25 1.57 1.64 1.44 1.37 1.25 1.45 1.59 1.50 1.50 1.69 1.84 2.12 2.37 2.61 2.74 2.85 2.96 3.11 3.17 3.14 3.13 2.95 2.97 3.05 3.12 3.12 3.07 2.99 2.92 2.89 2.90 2.94 2.91 2.75 2.86 2.85 3.08 3.10 3.12 3.11
0.06 0.10 0.17 0.32 0.51 0.76 0.64 0.78 1.20 1.52 1.78 1.52 1.30 1.21 1.31 1.28 1.25 1.37 1.53 1.64 1.80 2.11 2.30 2.41 2.54 2.60 2.72 2.78 2.89 3.02 3.00 2.92 2.91 2.93 2.92 2.90 2.90 2.79 2.72 2.68 2.74 2.72 2.69 2.74 2.81 2.94 2.86 2.91 3.06
0.08 0.17 0.56 0.94 1.21 1.24 0.81 0.84 1.19 1.18 1.21 1.24 1.20 1.24 1.25 1.19 1.15 1.15 1.24 1.39 1.58 1.82 2.01 2.06 2.16 2.24 2.25 2.30 2.48 2.66 2.70 2.74 2.62 2.56 2.58 2.59 2.42 2.32 2.41 2.35 2.49 2.50 2.53 2.57 2.70 2.78 2.76 2.89 3.05
0.13 0.19 0.62 0.96 1.00 1.05 0.90 1.16 1.49 1.18 1.09 1.02 1.10 1.20 1.20 1.06 1.00 1.03 1.13 1.18 1.27 1.47 1.69 1.74 1.83 1.94 2.10 2.14 2.23 2.36 2.38 2.39 2.27 2.35 2.35 2.29 2.07 2.00 2.19 2.32 2.36 2.34 2.35 2.43 2.70 2.54 2.58 2.78 2.82
0.19 0.20 0.28 0.53 0.64 0.81 1.01 1.29 1.46 1.14 1.10 1.21 1.32 1.30 1.25 1.00 0.86 0.89 0.89 0.93 0.95 1.07 1.24 1.36 1.62 1.77 1.88 1.98 2.08 2.10 2.08 2.14 2.10 2.17 2.31 2.20 2.18 2.04 2.11 2.16 2.25 2.34 2.47 2.62 2.77 2.58 2.69 2.93 2.81
0.17 0.17 0.23 0.46 0.70 0.87 0.98 1.34 1.64 1.59 1.43 1.35 1.41 1.25 0.98 0.81 0.71 0.68 0.68 0.68 0.77 0.89 1.00 1.15 1.35 1.45 1.56 1.76 1.89 1.81 2.00 2.08 2.07 2.07 2.01 2.04 2.13 2.11 1.99 1.94 2.01 2.08 2.18 2.35 2.50 2.40 2.54 2.80 2.74
0.20 0.23 0.31 0.45 0.49 0.72 1.11 1.34 1.26 1.31 1.23 1.27 1.25 1.08 0.85 0.69 0.63 0.66 0.66 0.68 0.75 0.82 0.97 1.14 1.35 1.50 1.50 1.60 1.73 1.78 1.88 2.01 2.04 1.97 1.88 1.92 2.00 2.04 1.97 1.95 1.95 1.93 1.89 1.98 2.13 2.12 2.35 2.39 2.39
0.18 0.21 0.31 0.45 0.44 0.49 0.79 1.05 0.74 0.78 0.80 0.87 0.93 0.80 0.73 0.70 0.66 0.73 0.78 0.78 0.80 0.89 1.03 1.21 1.35 1.51 1.57 1.68 1.87 2.00 1.96 1.96 2.00 1.96 1.86 1.78 1.74 1.82 1.93 1.97 1.89 1.75 1.79 1.93 1.94 1.99 2.21 2.31 2.28